Dewpoint
20 6 5 2 9 7 6 8 12 12 3 10 7 1 -0 -1 -3 1 3 13 16 14 13 13 12 11 10 10 10 10 11 7 6 5 6 7 8 8 9 10 11 11 11 16 17 17 17 18 19 20 18 17 16 14 15 14 14 13 13 14 11 10 11 10 12 14 12 11 11 11 9 9 11 13 15 16 15 16 16 20 21 21 20 22 23 23
6 3 5 9 7 8 7 8 7 3 3 -0 1 -1 -0 1 -5 -2 4 9 14 12 14 12 10 10 9 10 11 10 10 7 6 5 5 6 7 7 9 10 12 12 14 15 15 15 15 17 20 19 19 21 15 15 14 14 14 13 14 13 11 11 10 11 11 16 12 11 13 11 10 11 11 10 13 13 13 15 18 19 21 21 21 21 22 22
2 2 7 5 9 13 5 6 6 3 2 3 -6 1 -3 -3 1 3 6 9 12 13 14 13 11 10 10 10 10 9 8 8 8 8 6 6 7 8 9 10 11 12 14 14 15 16 17 17 18 18 18 16 16 15 14 14 14 13 13 13 13 14 14 13 14 17 13 12 14 12 11 11 12 16 13 16 16 17 16 18 19 23 22 22 22 21
-4 8 13 13 16 4 4 6 5 6 3 -5 -6 2 -12 -6 -6 -5 -0 10 9 11 12 14 11 11 10 10 10 10 10 9 9 10 10 10 9 9 10 11 12 12 15 16 16 16 16 17 17 18 18 17 18 15 14 14 14 12 14 12 14 15 14 15 15 19 15 15 17 14 15 15 13 10 15 14 14 15 14 15 18 20 21 22 22 22
-4 8 16 1 5 4 3 5 5 3 -2 4 -7 -5 -5 -3 -1 -6 -5 7 10 14 16 14 13 12 10 9 9 9 11 11 11 10 12 12 11 11 12 12 13 12 15 16 16 16 17 17 17 17 19 18 16 17 15 16 14 12 13 14 15 14 15 15 17 15 16 17 14 12 13 15 14 14 12 11 14 14 15 15 15 17 21 20 21 22
-6 6 10 -1 1 1 0 -1 1 1 -4 4 3 -6 -4 1 3 4 5 5 0 -1 13 8 -17 -16 8 10 10 10 10 9 10 11 11 10 10 12 11 13 14 16 18 17 17 17 18 18 18 18 18 17 16 15 16 16 15 14 13 13 14 15 16 16 17 17 16 15 13 11 11 10 12 12 12 11 12 13 14 14 16 17 17 19 20 20
-5 -1 -0 -1 1 1 -0 -3 -1 3 -4 -10 -20 1 2 4 6 6 4 -7 -12 -7 -2 -13 -22 -12 12 9 12 12 10 10 11 12 11 11 11 11 12 12 13 14 15 17 18 18 18 18 17 17 17 17 16 16 17 16 15 14 12 13 14 14 15 16 16 17 17 14 12 11 11 11 11 11 11 9 13 13 13 16 14 15 16 19 19 19
0 -5 -7 -4 -1 -0 -1 -4 0 4 2 -17 -11 -2 1 1 1 -0 5 -4 -8 12 5 -5 -14 -22 -17 -19 7 12 11 10 11 11 12 13 13 12 11 11 13 13 14 16 17 17 18 18 18 17 17 17 17 18 18 16 14 12 11 13 15 14 14 15 16 16 17 16 14 14 12 12 12 9 8 10 11 13 15 15 14 14 14 16 17 18
-7 -5 -5 -7 -6 -2 -2 0 2 1 -12 -19 -6 0 -1 2 1 2 5 4 5 -6 -6 -1 -8 -23 -15 -7 13 12 10 11 11 11 12 13 14 13 13 13 14 15 15 16 17 17 18 18 18 18 18 17 18 18 16 14 13 10 10 14 15 13 13 14 15 16 15 15 15 14 12 10 11 11 11 12 12 10 10 8 9 12 13 14 14 16
8 -4 -3 -3 -7 -7 -2 1 3 -1 -14 -10 -2 1 3 5 7 6 3 -0 -4 -11 -14 -4 -5 -25 -18 -12 9 12 11 10 11 12 13 14 14 15 15 15 16 16 17 17 17 18 19 19 18 18 18 19 19 19 17 15 10 10 11 14 14 12 12 14 14 14 13 13 14 12 11 11 10 9 9 9 7 7 8 6 7 7 9 13 13 15
8 21 13 1 -0 1 -0 2 4 3 -4 0 -5 -7 -8 -6 -0 0 -2 -5 -9 -20 -7 -7 -5 -21 -21 -14 4 7 7 11 12 13 14 15 15 16 16 17 16 15 16 17 18 19 19 19 19 19 18 18 18 17 14 12 9 10 13 13 12 12 13 13 14 14 12 12 11 10 10 9 9 8 8 6 5 6 5 5 6 7 7 9 9 14
1 2 4 6 22 9 1 0 7 7 4 -3 -5 -8 -7 -11 -6 -3 -5 -9 -24 -24 -13 -4 -6 -9 -20 -14 -6 9 11 12 12 11 13 14 15 16 16 16 15 15 16 17 18 18 19 19 19 18 18 18 17 15 11 10 12 14 13 13 11 11 12 12 14 13 12 11 11 10 8 6 6 7 5 5 5 5 5 5 5 6 6 7 8 9
-6 -4 -2 4 22 2 3 -10 -9 -8 -5 -5 -5 -9 -12 -32 -18 -30 -11 -22 -25 -17 -9 -4 -5 -17 -12 -11 -2 -1 8 11 13 13 13 14 16 16 16 16 16 16 16 18 18 18 18 18 18 18 18 18 16 13 10 11 12 12 12 11 10 9 11 11 12 11 11 10 10 9 6 6 8 7 7 5 5 5 4 4 5 4 4 5 8 7
-7 -4 -8 -0 -7 13 -12 -22 -19 -21 -14 -7 -6 -10 -16 -23 -27 -32 -20 -20 -19 -10 -11 -7 -6 -12 -8 -5 -1 -2 -2 5 12 15 16 15 15 15 16 16 16 16 17 17 17 17 17 17 18 18 18 17 15 13 10 9 14 12 10 10 9 9 9 10 10 10 9 9 9 8 7 6 4 4 5 5 5 5 5 4 5 4 4 4 5 6
-26 -13 -21 -17 -18 -2 3 -14 -12 -20 -2 -5 2 -14 -20 -18 -28 -31 -24 -25 -20 -11 -10 -6 -13 -10 -19 2 2 3 3 14 14 15 16 16 16 16 16 16 16 16 16 17 17 18 18 17 17 17 17 16 14 11 9 9 10 10 9 7 7 7 8 8 9 9 8 7 7 6 6 6 4 5 5 5 6 5 5 5 5 4 4 5 5 6
-20 -15 -18 1 -7 2 -2 7 4 -2 -7 -1 -4 -3 -9 -18 -7 -22 -14 -19 -16 -8 -6 -11 -8 -5 -4 6 8 11 14 15 18 15 15 16 16 16 16 16 17 17 17 18 17 17 17 16 17 16 15 14 12 9 5 7 9 8 7 8 7 5 5 7 8 6 5 5 5 4 4 3 5 6 6 5 5 5 5 6 5 4 4 5 5 6
-23 -24 -5 2 2 1 -0 7 -1 -12 -24 -19 -14 -14 -13 -2 -4 -14 -4 -5 -10 -17 -10 -18 -5 1 1 0 2 9 12 11 13 14 15 15 16 15 16 16 17 17 18 18 17 16 15 14 14 14 14 11 9 6 3 5 7 9 7 4 2 2 3 4 5 4 4 4 4 4 3 4 4 5 5 5 5 5 6 6 5 4 5 6 6 7
-24 -23 -11 -6 -4 2 9 -1 -0 1 -13 -7 -15 -10 1 4 1 -4 -12 -18 -26 -22 -15 -12 -12 -8 -10 -14 5 6 6 7 10 12 14 14 15 15 16 16 17 17 17 17 16 14 12 13 14 13 11 10 8 5 3 3 8 7 5 3 1 2 3 3 3 3 3 4 4 3 3 4 4 5 5 5 5 5 6 5 4 4 5 5 7 8
3 -13 -9 -1 -6 2 6 1 -4 -3 -1 -16 -18 -3 -9 -26 -25 -9 -18 -23 -24 -24 -18 -11 -13 -9 -9 -6 -3 -3 -0 3 4 8 9 13 14 15 15 16 16 17 16 15 13 12 11 12 12 12 11 9 6 6 3 2 4 5 3 2 2 3 3 3 2 2 3 5 4 4 4 4 4 4 4 5 5 5 5 4 4 3 4 6 7 8
4 -16 -13 -2 -1 -0 0 -6 -14 -6 -2 2 2 -0 7 -14 -17 -17 -15 -14 -14 -20 -21 -10 -16 -15 -6 -2 -2 -1 -1 2 1 -2 6 9 11 13 14 15 16 16 16 14 12 10 9 10 9 8 6 4 3 2 1 1 3 3 2 2 2 3 3 2 2 2 3 4 4 4 4 4 4 4 5 4 3 3 4 4 4 3 4 6 8 7
-1 -7 -21 -13 -5 -9 -7 -1 -10 -7 -4 -3 -5 -5 1 -9 -4 -3 -9 -11 -11 -25 -22 -22 -15 -11 -2 1 -3 -0 -1 0 -0 2 2 5 8 11 13 14 14 14 14 12 10 9 8 8 7 6 5 3 2 2 3 3 3 2 1 2 2 2 2 2 2 3 4 4 4 4 3 3 4 3 3 4 4 4 4 4 4 4 6 8 8 7
-6 -7 -14 -5 -9 -10 -10 -7 -2 -8 -2 -2 -1 -3 3 -6 -13 -20 -14 -12 -16 -13 -15 -22 -14 -10 -2 -0 1 -3 -1 1 3 3 4 5 7 9 11 12 13 13 12 11 10 8 7 6 5 3 2 2 1 0 1 1 1 1 1 2 2 2 2 2 2 4 5 4 4 3 2 1 2 1 2 3 4 4 4 3 3 6 8 7 6 5
2 -6 -7 -10 -8 -11 -14 -10 4 -1 -3 -1 -6 -6 1 -7 -10 -19 -25 -15 -12 -9 -15 -16 -19 -10 -1 3 1 3 1 3 5 6 5 5 5 6 8 10 12 12 12 10 8 7 6 5 3 2 1 -0 -0 -0 0 0 1 1 1 2 2 2 1 2 4 5 5 4 3 1 1 1 1 2 3 4 4 3 3 2 4 7 7 6 5 4
15 -10 -13 -8 -10 -12 -10 -9 -2 -2 -2 -2 -1 2 -4 -10 -6 -9 -12 -16 -11 -15 -14 -16 -12 -9 -3 -1 -2 -0 -0 -1 -1 4 3 4 6 7 8 9 11 11 10 10 8 6 5 4 2 -0 -1 -0 -0 -0 -0 0 0 1 2 2 1 1 2 3 5 5 4 2 1 0 0 1 2 3 4 3 3 1 1 2 5 6 7 5 4 4
-12 -7 -12 -21 -14 -11 -9 -7 -5 -3 -3 -4 -7 2 -0 -4 -6 -13 -14 -15 -12 -8 -9 -10 -14 -12 -2 -3 2 4 5 6 6 7 7 5 6 8 10 10 11 10 8 5 4 4 3 1 -0 -1 -0 -0 -0 -0 -0 -0 0 1 2 2 1 1 3 5 6 4 2 0 0 1 1 3 3 4 3 2 1 0 1 3 4 6 4 4 4 3
-5 -8 -15 -23 -27 -27 -23 -22 -13 -12 -3 -4 -3 3 1 -2 -2 -6 -9 -10 -13 -8 -8 -15 -11 -5 0 -1 -0 4 6 6 8 9 9 9 8 8 10 10 9 6 3 3 3 2 1 0 0 0 0 0 1 0 0 0 1 2 2 2 2 2 4 6 4 2 0 0 0 1 3 4 4 3 2 0 0 0 2 3 3 4 4 3 2 2
-12 -6 -12 -11 -11 -15 -11 -10 -10 -1 -12 -9 -12 -0 2 -2 -1 -7 -8 -9 -8 -8 -7 -5 -5 -6 -6 -5 -2 -2 2 3 0 1 6 7 8 10 10 8 5 3 2 2 2 2 1 0 0 1 1 1 1 0 1 1 2 2 2 2 2 4 5 4 2 1 0 0 1 5 4 4 3 1 0 0 0 1 4 4 4 3 2 1 1 -0
-12 -11 -5 -10 -13 -15 -16 -16 -13 1 -14 -13 -13 -7 1 0 -0 -4 -6 -8 -6 -9 -10 -4 -3 -3 -4 -4 -3 -3 -3 -3 -1 -1 -1 -0 1 3 4 4 11 4 2 2 1 1 1 1 1 1 1 1 1 1 2 3 3 3 2 2 3 4 3 2 1 0 2 2 3 3 4 3 1 0 0 1 2 3 3 3 3 1 -1 -0 -1 -0
-9 -12 -9 -9 -5 -6 -8 -10 -8 -7 -10 -13 -11 -10 -5 0 -1 -2 -3 -3 -5 -8 -10 -8 -6 -5 -6 -5 -3 -3 -4 -4 -4 -3 -2 -1 -0 1 2 2 3 3 4 3 3 2 2 1 1 1 2 2 2 2 3 4 3 2 2 3 3 3 3 1 1 1 2 3 3 3 2 1 0 1 2 2 2 2 2 1 -2 -1 -1 -1 -0 2
-5 -7 -12 -7 -4 -3 -2 -2 -1 -1 -1 -4 -4 -6 -7 -3 -0 0 -2 -3 -4 -4 -5 -5 -5 -6 -6 -3 -4 -4 -4 -4 -3 -1 -0 0 1 2 2 2 2 2 2 1 1 1 1 1 1 2 2 2 2 3 4 4 3 2 2 2 2 2 1 1 1 2 2 3 3 2 1 1 2 2 1 1 1 1 -1 -3 -2 -1 1 1 2 5
-3 -6 6 -6 -6 -2 -2 -5 -7 -5 -4 -6 -6 -5 -2 -2 -3 -1 -0 -1 -1 -3 -3 -3 -3 -2 -1 -1 -2 -2 -2 -1 -1 -0 0 0 1 2 2 2 2 2 2 1 1 1 1 1 1 2 2 2 3 4 5 4 3 2 2 2 2 2 1 1 1 2 2 2 1 0 1 1 1 0 -0 0 0 -2 -3 -3 -2 0 0 2 4 2
-5 -6 -10 -14 -11 -5 -6 -7 -7 -7 -6 -6 -7 -6 -7 -6 -2 -2 -2 -1 -1 -1 -0 -1 -2 -1 -0 -0 -1 -1 -1 -1 -2 -2 -2 -1 1 2 2 2 2 2 1 1 1 2 1 2 2 2 2 3 4 5 4 3 2 2 1 1 2 1 1 2 2 2 2 2 1 -0 0 -1 -1 -1 0 -0 -2 -3 -4 -2 -1 1 3 3 0 -1
-5 -7 -8 -14 -15 -9 -7 -7 -7 -7 -6 -7 -4 -5 -5 -6 -6 -5 -4 -2 -1 -1 -2 -4 -3 -1 -0 0 -2 -2 -2 -3 -2 -2 -2 -1 0 2 1 2 2 2 1 1 1 2 2 2 2 2 3 4 5 5 3 3 2 1 2 2 2 1 1 2 2 2 1 -0 -1 -1 -1 -2 -1 -1 -1 -2 -2 -2 -1 -1 -0 2 2 -0 -1 -2
-10 -7 -14 -9 -17 -10 -10 -8 -6 -7 -12 -14 -9 -6 -6 -7 -6 -5 -4 -5 -2 -0 0 1 1 4 1 1 -0 -1 -1 -2 -3 -3 -2 -1 1 2 3 3 2 2 2 2 2 2 2 3 3 4 5 5 5 4 3 3 2 2 3 2 2 2 2 2 2 0 -0 -1 -1 -2 -2 -1 -2 -1 -1 -2 -3 -2 -2 -1 1 1 -0 -2 -2 -2
-6 -8 -10 -16 -12 -8 -9 -6 -7 -13 -12 -5 -4 -5 -7 -6 -4 -4 -3 -2 -2 0 1 1 1 1 0 0 0 0 -0 -0 -0 -0 0 3 5 3 4 4 4 4 3 3 3 3 3 3 4 5 5 4 3 2 2 2 3 3 2 1 2 2 2 1 0 -1 -2 -2 -2 -2 -2 -1 -1 -2 -2 -3 -3 -2 -2 -0 1 -1 -2 -3 -3 -3
-3 -5 -12 -6 -17 -14 -11 -21 -21 -13 -10 -2 -1 -0 2 -1 -3 -4 -3 -0 -1 -1 0 1 1 1 0 -0 -0 -0 -0 0 1 1 2 2 3 3 4 3 3 4 3 3 3 4 3 4 5 5 5 4 3 3 3 3 3 2 1 1 2 1 -0 -0 -2 -2 -2 -2 -2 -2 -2 -2 -2 -2 -3 -3 -3 -2 -1 -0 -1 -3 -4 -4 -4 -3
2 -7 -4 -6 -9 -13 -13 -18 -9 -5 -4 -3 -4 -3 -2 -5 -3 -7 -11 -3 -6 2 5 2 1 1 1 0 1 0 -0 -0 -0 -1 0 1 1 3 3 2 2 2 3 3 3 4 5 6 5 4 3 3 3 3 3 3 1 1 0 -0 -0 -1 -1 -2 -2 -3 -3 -3 -3 -3 -3 -2 -2 -3 -3 -3 -3 -2 -1 -1 -3 -5 -5 -5 -5 -4
3 1 -0 -4 -6 -8 -10 -6 -7 -10 -11 -6 -2 2 2 2 2 0 -2 -2 4 2 1 1 -1 -0 0 1 1 1 -1 -3 -3 -3 -1 -1 1 0 1 2 2 2 2 3 4 5 4 3 2 3 3 3 3 3 3 2 1 -1 -1 -1 -1 -1 -2 -2 -3 -3 -3 -4 -3 -4 -3 -3 -3 -3 -3 -4 -3 -2 -1 -3 -5 -5 -5 -5 -6 -6
0 3 -0 1 -2 -9 -11 -12 -14 -13 -7 0 2 0 1 1 -3 -2 -2 -3 3 1 2 1 0 0 1 1 2 1 -4 -6 -3 2 1 1 1 1 1 2 2 2 3 4 5 4 3 2 2 3 4 3 3 2 2 0 -0 -1 -1 -1 -1 -2 -2 -3 -3 -4 -4 -4 -4 -4 -4 -4 -4 -4 -4 -4 -2 -2 -4 -6 -6 -5 -6 -6 -6 -6
-0 -8 -5 -4 -6 -5 -11 -12 -4 -11 -3 -2 -2 -1 -0 -1 -2 -0 -6 -6 0 1 -0 0 0 0 2 2 2 1 0 -4 -2 3 3 3 2 2 3 2 3 3 4 5 4 5 4 3 4 3 3 2 2 1 1 0 -1 -1 -1 -1 -2 -2 -3 -4 -4 -4 -4 -4 -4 -4 -3 -3 -3 -3 -3 -3 -1 -3 -6 -7 -6 -7 -7 -7 -7 -7
-3 -3 -2 3 0 -2 1 -3 -10 -0 5 4 5 1 0 -2 -4 -8 -8 -4 4 0 0 2 1 1 2 3 4 1 4 2 3 2 2 2 2 2 2 3 5 6 6 6 5 8 4 4 3 2 1 1 2 1 1 -0 -2 -2 -2 -2 -3 -4 -4 -4 -5 -5 -5 -4 -5 -5 -4 -4 -4 -5 -3 -3 -4 -7 -7 -7 -7 -8 -9 -9 -8 -8
-11 -8 -6 -10 -4 -0 -2 -5 -1 -1 5 7 3 1 0 -4 -7 -7 1 5 2 3 1 1 1 1 3 4 5 5 2 1 3 3 3 3 3 3 4 6 6 7 7 7 7 7 5 3 1 1 1 2 2 1 -0 -1 -2 -3 -3 -4 -5 -4 -4 -5 -5 -6 -6 -6 -5 -5 -5 -5 -5 -4 -4 -5 -7 -11 -11 -9 -9 -9 -10 -9 -9 -9
-2 -2 -6 -8 -9 -9 -15 -13 -9 -9 -0 4 2 -1 -0 -3 -0 5 6 7 4 2 2 2 4 3 5 4 4 4 3 3 3 4 5 5 5 6 6 6 7 6 6 5 6 6 5 2 1 1 1 2 1 0 -1 -2 -3 -4 -5 -6 -5 -5 -5 -6 -7 -7 -7 -7 -6 -6 -6 -6 -6 -5 -8 -7 -8 -11 -12 -11 -12 -12 -11 -11 -11 -11
0 -9 -9 -9 -6 -14 -13 -12 -8 -1 4 4 -0 -2 4 5 4 6 4 2 4 3 4 3 3 5 6 5 5 5 5 7 8 8 8 8 7 6 7 7 7 7 7 7 7 5 4 2 1 1 1 1 0 -1 -1 -3 -4 -5 -6 -6 -5 -6 -6 -7 -8 -8 -8 -7 -7 -7 -6 -7 -8 -12 -12 -11 -11 -12 -13 -13 -13 -12 -11 -11 -11 -11
5 1 2 -10 -8 -6 -6 -3 4 9 5 3 1 0 5 6 5 4 5 4 3 3 4 5 6 5 6 7 8 9 9 9 10 10 11 10 9 8 7 8 8 8 7 7 5 4 3 2 1 1 0 -0 -1 -3 -4 -5 -6 -6 -7 -6 -6 -7 -8 -9 -9 -9 -8 -8 -8 -9 -9 -10 -12 -14 -15 -14 -14 -14 -13 -14 -14 -13 -12 -12 -12 -12
7 3 1 -7 -1 0 -1 -1 3 0 1 1 3 3 2 2 2 2 1 1 2 3 4 5 5 6 7 8 9 9 10 10 11 12 12 11 9 8 8 8 8 8 7 6 4 3 2 1 1 -0 -1 -2 -3 -4 -5 -6 -7 -7 -7 -7 -7 -8 -9 -9 -10 -10 -10 -10 -10 -10 -11 -13 -12 -13 -15 -15 -15 -14 -13 -14 -13 -13 -13 -13 -13 -13
4 1 -3 -5 -0 -3 -4 -2 -2 -2 -1 -0 0 1 1 1 2 2 2 3 3 4 5 5 7 8 9 10 10 11 11 13 12 12 11 10 9 9 8 8 8 8 7 5 4 2 1 -0 -1 -1 -3 -4 -4 -6 -7 -8 -8 -8 -7 -8 -8 -8 -9 -10 -11 -10 -9 -9 -10 -11 -13 -14 -12 -12 -13 -17 -16 -15 -14 -12 -14 -15 -14 -14 -14 -14
2 -1 -4 -0 -2 -3 -3 -2 -1 0 2 4 4 4 4 4 4 5 5 5 6 8 8 9 10 10 10 10 11 12 12 12 11 11 11 10 10 9 9 8 8 8 6 5 3 1 -0 -1 -1 -3 -4 -5 -5 -6 -7 -8 -9 -9 -9 -9 -9 -9 -11 -11 -11 -10 -10 -10 -10 -11 -12 -13 -11 -10 -11 -13 -17 -16 -17 -17 -16 -16 -16 -15 -15 -15
1 1 1 1 -2 1 1 2 4 6 7 7 6 6 6 5 7 7 7 8 9 9 10 9 9 10 10 11 11 11 11 11 11 11 10 10 10 10 9 8 8 7 5 4 2 1 1 -1 -3 -4 -6 -6 -5 -7 -8 -9 -9 -9 -9 -8 -10 -11 -13 -12 -11 -10 -11 -11 -12 -12 -12 -12 -13 -13 -13 -14 -17 -17 -16 -16 -17 -17 -16 -15 -13 -14
3 1 4 4 2 2 3 4 8 6 5 6 7 6 6 7 8 8 8 10 10 10 10 10 10 11 11 11 10 10 10 10 11 11 10 10 10 9 9 9 7 5 4 3 2 1 -2 -4 -5 -6 -6 -6 -6 -8 -8 -9 -9 -10 -10 -11 -11 -14 -13 -12 -11 -13 -13 -13 -14 -14 -14 -14 -14 -15 -14 -15 -16 -16 -18 -12 -10 -11 -13 -13 -10 -10
-0 5 4 1 3 3 7 8 9 10 8 7 7 7 8 8 8 9 10 10 10 11 11 11 11 11 11 11 11 10 10 10 10 11 10 9 9 10 9 7 6 5 3 2 0 -2 -4 -5 -6 -7 -7 -7 -7 -9 -9 -10 -10 -11 -11 -11 -13 -14 -14 -15 -13 -13 -13 -13 -15 -14 -14 -14 -15 -15 -17 -17 -18 -19 -18 -18 -18 -10 -10 -11 -11 -11